Wind_Speed
23 23 23 23 23 24 25 25 25 23 23 22 24 24 24 25 25 25 26 27 28 28 29 29 30 31 31 31 31 31 32 32 33 35 36 38 39 40 40 41 41 42 44 44
23 24 24 24 23 24 25 25 25 25 23 23 24 24 24 24 24 25 26 27 27 28 28 28 29 29 30 31 31 30 31 31 32 33 35 36 38 39 39 40 41 41 42 43
24 23 24 24 23 24 25 25 25 24 23 24 25 25 24 24 25 25 26 26 26 26 27 28 28 29 29 29 30 30 30 30 31 32 33 34 36 37 38 39 39 38 38 39
24 24 25 23 23 24 25 25 25 25 25 25 25 25 25 25 25 25 25 25 25 25 26 27 27 27 27 28 29 30 30 30 31 32 32 33 34 35 36 37 36 36 36 37
24 24 24 23 22 23 24 24 25 25 25 25 25 26 26 26 26 26 25 25 25 26 26 26 26 26 27 28 28 29 29 29 30 31 31 32 32 33 34 34 34 34 34 34
23 24 24 22 21 23 24 24 24 25 25 25 25 25 25 26 26 26 26 26 26 26 26 26 27 27 27 27 27 28 28 29 30 30 30 30 31 31 32 32 32 32 32 31
23 23 23 22 21 22 23 23 24 24 24 25 26 25 26 26 27 26 26 26 26 26 26 27 27 26 26 26 27 27 29 29 29 29 29 29 29 30 30 30 30 29 29 29
21 22 21 21 21 22 22 23 23 24 24 24 25 25 25 25 25 25 25 25 25 26 26 26 26 26 26 26 27 28 28 28 28 28 28 28 27 27 27 27 27 27 27 27
21 21 21 21 21 21 22 22 22 23 23 23 23 24 24 24 24 24 25 24 24 24 24 25 26 26 26 27 27 26 26 26 27 27 26 26 25 25 24 24 24 24 25 25
21 21 22 22 22 23 23 23 23 23 22 22 22 22 23 23 23 23 23 23 23 23 24 24 25 26 25 25 25 24 24 24 25 24 24 24 23 23 22 21 21 21 22 23
22 22 23 22 23 23 23 23 22 22 22 21 21 21 21 21 21 21 22 22 22 23 23 23 24 24 24 23 23 23 23 23 23 22 22 21 21 20 20 20 20 20 21 21
22 22 22 22 23 22 23 22 22 22 22 21 20 19 19 20 20 20 21 21 21 21 22 22 22 22 22 22 21 21 21 21 21 20 20 19 19 19 19 19 20 20 20 21
21 22 22 22 22 22 22 22 21 21 20 19 19 19 19 19 19 19 19 20 20 20 20 20 19 19 20 20 19 19 19 20 19 18 18 18 18 18 18 18 19 19 19 19
22 22 22 22 22 22 21 21 20 19 19 18 18 18 18 18 18 18 18 19 18 19 19 18 18 18 18 18 18 18 18 19 18 17 17 17 17 17 17 17 17 18 17 16
23 22 22 22 22 21 20 19 19 19 18 18 18 18 17 17 17 17 17 17 17 18 18 18 18 17 18 18 18 18 18 18 17 17 17 17 16 15 15 15 16 16 15 14
21 22 22 22 21 20 19 19 19 18 18 17 17 17 17 17 17 17 17 17 17 17 17 17 17 17 17 17 18 18 18 18 17 17 17 16 16 15 15 15 15 14 13 12
20 20 21 21 20 19 19 19 19 19 18 17 17 17 17 16 16 16 16 16 16 17 17 17 17 17 17 17 17 18 18 17 17 17 16 16 16 15 15 14 14 13 12 11
19 18 18 18 18 18 19 19 19 19 18 17 17 17 16 15 15 15 15 16 16 17 17 17 17 16 16 17 17 17 16 16 16 16 16 16 15 14 14 14 13 12 10 10
16 16 16 16 17 17 18 18 18 17 17 16 16 15 14 14 14 14 15 15 15 16 17 16 16 16 16 16 16 16 15 15 15 15 15 14 14 13 13 12 11 10 10 10
15 15 15 15 15 16 17 17 17 16 16 15 15 14 14 13 14 14 15 15 15 16 16 16 15 15 15 15 15 14 14 14 15 14 14 13 12 12 11 11 10 9 9 9
14 14 15 15 15 15 15 15 15 15 14 14 13 13 13 13 14 14 14 15 16 16 16 16 15 15 15 15 14 14 14 15 15 14 13 12 11 11 10 9 9 9 9 8
14 14 15 15 14 14 14 13 14 14 13 13 13 13 13 13 14 14 14 15 16 16 16 15 15 15 15 15 14 14 14 14 14 13 11 11 10 10 9 9 8 7 7 7
13 14 14 14 13 13 12 12 12 12 13 13 13 13 13 14 14 14 15 15 16 16 15 15 15 15 14 14 14 14 14 13 13 12 11 10 9 9 8 8 7 7 6 6
13 13 13 13 12 12 11 11 11 12 12 12 12 12 13 13 14 14 14 15 15 15 15 15 14 14 13 13 13 13 13 12 12 11 10 9 8 8 7 6 6 6 6 6
13 12 12 12 12 12 11 11 11 11 11 12 12 12 13 13 14 14 14 15 15 14 14 14 13 13 13 13 13 13 12 11 10 9 8 7 7 7 6 6 6 6 6 5
13 12 11 11 12 11 11 11 11 11 11 11 12 12 13 13 14 14 14 15 14 13 13 13 12 12 12 12 11 11 10 9 8 8 7 7 7 7 7 6 6 6 6 6
12 12 11 11 11 11 11 11 11 11 11 12 12 13 13 14 14 15 14 14 13 13 13 12 12 12 12 11 10 9 8 7 7 7 7 7 7 7 7 7 6 6 6 5
Wind_Direction
273 274 274 273 273 273 274 276 278 278 278 276 276 276 277 278 278 277 277 278 280 281 280 281 282 281 279 279 280 279 277 277 276 274 273 272 271 271 271 272 272 273 273 274
273 274 273 273 272 273 275 276 279 278 277 275 276 276 277 277 279 280 280 280 281 282 282 283 283 282 281 281 281 282 282 279 278 278 276 274 273 273 273 274 274 274 275 274
274 275 275 274 275 276 277 277 279 279 279 276 276 277 277 277 279 281 282 282 282 283 283 284 285 285 284 283 282 284 285 284 282 281 280 278 275 275 275 276 275 275 276 275
275 276 275 278 277 277 277 277 278 279 279 278 277 277 279 280 282 282 281 282 283 285 286 287 288 287 287 286 285 286 287 287 286 284 282 281 278 277 277 277 276 276 276 277
276 277 277 277 278 279 279 279 279 281 281 279 277 277 278 281 281 281 282 283 284 286 287 289 289 289 289 288 287 288 288 288 289 288 286 284 281 280 279 278 278 278 278 279
277 278 279 281 281 281 280 280 281 282 281 280 278 277 278 279 280 281 282 283 284 286 287 288 290 291 290 289 288 288 289 290 291 291 289 286 285 284 282 281 280 280 280 279
277 279 280 283 284 283 283 284 284 284 283 281 281 281 280 280 281 281 282 282 283 284 286 288 290 292 292 291 290 290 292 293 293 292 291 288 287 286 284 282 281 281 280 279
277 279 283 285 284 284 284 284 285 286 286 284 283 283 282 282 283 282 282 283 284 285 287 289 291 292 294 293 292 292 293 294 295 294 293 291 289 287 285 284 283 282 281 280
276 280 282 283 284 285 284 284 285 287 288 287 287 286 285 284 284 283 283 283 285 286 288 291 292 294 295 295 295 294 295 296 297 296 295 294 292 289 287 285 284 283 282 280
273 276 279 282 282 284 286 286 287 289 291 290 289 288 286 284 284 284 283 284 286 288 290 291 292 294 296 297 298 298 299 299 299 299 298 295 293 292 290 288 286 286 285 284
272 274 277 281 283 285 287 288 287 288 290 291 290 289 288 286 285 285 285 286 288 289 290 292 294 295 296 298 300 301 302 302 302 301 299 298 296 293 291 291 290 289 287 286
274 275 277 279 281 284 286 286 285 286 288 290 289 289 291 290 288 288 287 288 290 291 292 294 296 297 297 298 302 305 307 306 306 303 302 301 299 295 293 293 294 292 290 287
275 275 276 277 279 280 283 285 283 284 287 288 288 288 292 294 292 291 290 290 291 292 292 295 297 298 299 301 304 308 311 312 310 307 305 304 304 301 298 297 297 296 293 290
273 274 274 275 278 280 282 284 284 283 285 286 287 290 293 295 294 293 292 293 294 296 295 295 298 298 300 303 305 308 312 314 312 310 309 307 307 306 303 301 301 299 296 291
272 273 275 275 277 280 282 282 283 284 284 285 287 290 293 294 294 294 295 295 296 298 298 297 297 297 299 302 305 308 311 314 313 312 311 310 309 308 308 306 305 303 299 292
271 272 274 275 276 278 280 279 280 284 284 282 285 288 292 294 296 296 296 296 297 298 301 300 298 298 299 301 304 308 309 312 311 310 311 311 310 309 309 309 307 305 302 298
272 273 274 273 273 275 276 277 279 282 283 281 284 287 290 293 295 297 298 298 298 300 302 303 301 299 300 302 305 307 309 310 310 310 310 310 309 308 308 308 308 305 302 299
273 273 274 272 272 272 273 275 278 280 281 281 283 286 289 292 294 297 298 301 301 301 302 303 303 304 302 303 307 310 310 310 309 308 309 310 310 308 306 306 306 304 302 299
277 276 275 276 276 274 272 274 276 276 278 279 281 284 286 289 294 297 300 301 302 302 301 302 304 306 308 309 309 309 311 314 314 313 311 311 309 308 306 307 307 304 303 303
279 279 280 280 279 278 274 272 272 274 277 278 279 283 286 290 295 298 300 300 301 302 301 301 303 305 307 309 311 313 313 314 316 317 316 313 312 311 310 308 308 305 304 304
278 279 281 281 281 280 275 271 270 272 276 277 278 282 286 291 296 299 300 302 303 302 301 301 301 302 305 307 310 312 312 313 315 315 315 316 316 315 314 311 309 306 303 301
279 279 281 282 282 279 275 272 271 270 273 275 277 281 287 294 297 299 301 303 303 302 302 303 303 302 301 304 306 308 310 313 316 315 315 316 317 316 314 313 311 310 308 305
280 281 282 281 279 276 273 272 272 271 273 276 278 282 289 296 299 300 302 303 303 303 303 303 303 304 303 303 304 306 309 310 312 313 313 313 313 313 313 310 309 309 306 304
279 282 282 279 276 275 274 275 274 274 274 277 280 284 291 297 301 303 303 303 303 302 303 303 303 304 304 304 304 306 308 309 309 310 309 309 310 311 311 310 309 307 303 303
277 278 277 275 272 272 273 273 275 277 279 280 282 287 294 299 302 304 305 306 305 304 304 304 305 306 306 305 304 305 306 308 310 310 307 306 307 308 307 305 303 305 304 305
277 275 274 273 272 271 271 271 274 277 280 282 285 290 295 299 301 303 306 307 307 307 307 306 306 307 306 306 307 306 306 306 306 306 305 306 308 309 309 308 306 308 310 307
275 274 272 272 272 272 272 272 274 277 280 283 286 290 294 298 301 304 305 306 306 307 308 307 307 308 308 308 306 304 302 301 301 299 298 299 302 304 303 303 305 307 308 306
Height
5588 5587 5587 5586 5586 5585 5584 5584 5584 5584 5584 5583 5581 5580 5580 5579 5578 5577 5576 5575 5574 5572 5571 5569 5568 5566 5564 5562 5560 5558 5557 5555 5553 5552 5551 5550 5549 5549 5549 5548 5548 5547 5547 5546
5582 5581 5580 5580 5580 5579 5578 5578 5577 5577 5578 5576 5575 5574 5573 5572 5571 5570 5569 5568 5566 5565 5563 5561 5559 5557 5555 5553 5551 5550 5548 5546 5544 5542 5540 5539 5538 5537 5537 5537 5536 5535 5534 5534
5576 5575 5574 5575 5575 5573 5573 5573 5572 5571 5572 5570 5569 5568 5567 5566 5565 5563 5562 5560 5559 5557 5556 5554 5552 5549 5547 5545 5543 5541 5539 5537 5534 5532 5530 5528 5527 5527 5526 5525 5524 5523 5522 5522
5569 5569 5568 5572 5569 5568 5567 5566 5565 5565 5564 5563 5562 5561 5560 5559 5558 5556 5555 5553 5551 5550 5548 5546 5544 5541 5539 5537 5535 5533 5530 5528 5526 5523 5521 5519 5517 5516 5515 5514 5513 5512 5511 5511
5563 5562 5562 5564 5563 5561 5560 5560 5559 5558 5557 5556 5555 5554 5553 5552 5550 5549 5548 5546 5544 5543 5541 5539 5536 5534 5531 5529 5527 5524 5522 5520 5518 5515 5513 5510 5508 5507 5505 5504 5503 5502 5501 5500
5557 5556 5556 5559 5557 5555 5554 5553 5553 5551 5550 5549 5548 5548 5548 5545 5543 5542 5540 5539 5537 5535 5533 5531 5529 5526 5524 5521 5519 5516 5514 5512 5509 5507 5504 5502 5500 5498 5496 5495 5494 5493 5492 5491
5551 5550 5550 5552 5550 5549 5549 5549 5546 5544 5543 5542 5540 5540 5539 5537 5536 5534 5533 5531 5530 5528 5526 5524 5521 5519 5516 5514 5511 5509 5507 5504 5501 5499 5496 5494 5492 5490 5488 5486 5485 5484 5483 5482
5545 5545 5548 5546 5544 5543 5542 5540 5539 5537 5536 5535 5533 5532 5530 5529 5528 5527 5525 5524 5522 5521 5519 5516 5514 5512 5510 5507 5504 5502 5499 5496 5494 5491 5489 5486 5484 5482 5480 5479 5477 5476 5475 5474
5541 5543 5541 5539 5538 5537 5535 5534 5532 5531 5529 5528 5526 5525 5523 5522 5521 5519 5518 5517 5515 5514 5512 5510 5507 5505 5503 5500 5497 5494 5492 5489 5487 5484 5481 5479 5477 5475 5473 5471 5470 5469 5468 5467
5535 5535 5534 5533 5531 5530 5529 5527 5526 5524 5523 5521 5520 5518 5517 5515 5514 5513 5511 5510 5509 5507 5505 5503 5501 5498 5496 5493 5490 5488 5485 5483 5480 5478 5475 5472 5470 5468 5467 5465 5464 5462 5461 5460
5528 5529 5527 5527 5525 5524 5523 5521 5520 5518 5516 5515 5514 5512 5511 5510 5508 5507 5505 5504 5502 5500 5499 5497 5494 5492 5489 5486 5484 5482 5479 5477 5474 5471 5469 5467 5465 5463 5461 5460 5458 5457 5455 5454
5522 5522 5521 5521 5519 5518 5517 5515 5514 5512 5511 5509 5508 5507 5505 5504 5502 5501 5499 5497 5496 5494 5492 5490 5488 5486 5483 5481 5479 5476 5474 5471 5468 5466 5464 5461 5459 5457 5455 5454 5452 5451 5449 5448
5515 5515 5514 5514 5513 5512 5511 5509 5508 5507 5505 5504 5503 5501 5500 5499 5497 5495 5494 5492 5490 5489 5487 5485 5483 5480 5478 5476 5474 5472 5469 5467 5464 5461 5459 5457 5454 5452 5451 5449 5447 5446 5444 5443
5508 5508 5508 5507 5507 5506 5505 5503 5502 5501 5500 5499 5498 5496 5495 5494 5492 5491 5489 5487 5485 5483 5481 5480 5478 5476 5474 5472 5470 5467 5465 5462 5460 5458 5455 5453 5450 5448 5446 5445 5443 5441 5440 5438
5502 5501 5501 5501 5500 5500 5498 5498 5497 5496 5495 5494 5493 5492 5491 5489 5488 5486 5484 5483 5481 5479 5477 5475 5473 5471 5469 5467 5465 5463 5461 5459 5456 5454 5451 5449 5447 5445 5443 5441 5439 5437 5435 5434
5495 5495 5494 5494 5494 5493 5493 5492 5492 5491 5490 5489 5488 5487 5486 5485 5483 5481 5480 5478 5476 5475 5473 5471 5469 5467 5465 5463 5461 5459 5457 5455 5452 5450 5448 5446 5443 5441 5439 5437 5435 5434 5432 5431
5488 5488 5487 5487 5487 5487 5487 5487 5486 5486 5485 5484 5483 5483 5481 5480 5479 5477 5476 5474 5472 5470 5468 5466 5464 5462 5461 5459 5457 5455 5453 5451 5448 5446 5444 5442 5440 5438 5436 5434 5432 5431 5430 5429
5482 5482 5481 5481 5481 5481 5481 5481 5481 5481 5480 5479 5479 5478 5477 5476 5475 5473 5472 5470 5468 5466 5464 5462 5460 5458 5457 5455 5453 5451 5449 5447 5445 5443 5441 5438 5436 5434 5432 5431 5429 5428 5427 5426
5476 5476 5476 5475 5475 5476 5476 5476 5476 5476 5475 5475 5474 5474 5473 5472 5471 5469 5468 5466 5464 5463 5461 5459 5457 5455 5453 5451 5449 5447 5445 5443 5441 5439 5437 5435 5433 5431 5429 5428 5426 5425 5424 5424
5472 5472 5471 5471 5471 5471 5471 5471 5471 5471 5471 5470 5470 5470 5469 5468 5467 5466 5464 5462 5461 5459 5457 5455 5453 5451 5449 5447 5445 5444 5442 5440 5438 5436 5433 5431 5430 5428 5426 5425 5424 5423 5422 5421
5468 5468 5467 5467 5466 5466 5466 5466 5466 5466 5466 5466 5466 5466 5465 5464 5463 5462 5460 5459 5457 5455 5453 5451 5449 5448 5446 5444 5442 5440 5438 5436 5434 5432 5430 5428 5427 5425 5424 5423 5422 5421 5420 5419
5464 5464 5463 5463 5462 5462 5462 5462 5462 5462 5462 5462 5462 5462 5461 5460 5459 5458 5456 5455 5453 5451 5449 5447 5445 5444 5442 5440 5439 5437 5435 5433 5431 5429 5428 5426 5425 5423 5422 5421 5420 5419 5418 5417
5460 5460 5459 5459 5459 5458 5458 5458 5458 5459 5459 5459 5459 5458 5458 5456 5455 5454 5453 5451 5449 5447 5445 5443 5441 5439 5438 5436 5435 5433 5431 5430 5428 5426 5425 5424 5422 5421 5420 5419 5418 5417 5416 5415
5456 5456 5456 5455 5455 5455 5455 5455 5455 5455 5455 5455 5455 5455 5454 5453 5451 5450 5448 5446 5444 5443 5441 5439 5437 5435 5434 5433 5431 5430 5428 5426 5425 5423 5422 5421 5420 5419 5418 5417 5416 5415 5415 5414
5453 5453 5452 5452 5452 5452 5452 5452 5452 5452 5452 5452 5451 5451 5450 5449 5448 5446 5444 5442 5441 5439 5437 5435 5434 5432 5430 5429 5427 5426 5424 5423 5422 5421 5420 5419 5418 5417 5416 5415 5415 5414 5413 5412
5449 5449 5449 5449 5449 5449 5449 5449 5449 5449 5448 5448 5448 5447 5446 5445 5444 5442 5441 5439 5437 5435 5433 5432 5430 5429 5427 5426 5424 5423 5421 5420 5419 5418 5417 5417 5416 5415 5414 5414 5413 5412 5412 5411
5446 5446 5446 5446 5446 5445 5445 5446 5446 5446 5445 5445 5445 5444 5443 5442 5440 5439 5437 5435 5433 5432 5430 5429 5427 5425 5424 5422 5421 5420 5419 5418 5417 5416 5415 5415 5414 5413 5413 5412 5411 5410 5410 5409